CZ-3B DEB, 42471

Orbit data source: Space-Track

CZ-3B DEB, 42471 is space debris in HEO originally from a launch on Mon, 19 Dec 2011 UTC launched from the Xichang Space Center, China (XSC). Debris objects in space refer to the collection of defunct objects orbiting the Earth. Examples of debris include non-operational satellites, rocket bodies, and fragments generated from explosions, collisions, or faulty payload assembly.

Loading next visibility...
Identifier
42471, 2011-077AL
Orbit
HEO
Country
Flag of CNCN / PRC
Related business
Manufacturer
CALT
Mission
Spacecraft
Bus & Motor
Unknown
Mass
Unknown
Launch date (UTC)
2011-12-19 (14 years ago)
Launch vehicle
Unknown
Launch site
Xichang Space Center, China (XSC)
Object type
Payload
Rocket body
Debris
Shape & HBR
Unknown
Radar Cross Section
Medium (>0.1 m² and <1 m²)

Expand to show TLE details & history
Last TLE update: 1 week ago

TLE from 1 week ago
0 CZ-3B DEB
1 42471U 11077AL  25253.45211316 -.00000194  00000-0 -38842-3 0  9998
2 42471  26.3627  25.4544 7460853 356.5253   0.1458  1.89233842 29393
Epoch: 2025-09-10T10:51Z
TLE epoch observation values (Epoch: 2025-09-10T10:51:02.577Z)
Latitude
0.00016°
Longitude
-127.0397°
Altitude
618.702 km
Speed
9.975 km/s
True Right ascension
01h 41m 47s
True Declination
0° 00' 01"
Sunlit
Object was in full shadow at epoch
Visualization orbit readout
Latitude
Unknown
Longitude
Unknown
Altitude
Unknown
Speed
Unknown
Apparent Right ascension
Unknown
Apparent Declination
Unknown
Sunlit
N/A
Visualization observer readout
Local Sidereal Time
17:56:44
Azimuth
Unknown
Elevation
Unknown
Doppler factor
Unknown
Orbital elements
Apogee altitude
41,838.274 km
Perigee altitude
633.465 km
Semi-major axis
27,614.007 km
Eccentricity
0.74609
Inclination
26.3627°
RAAN
25.4544°
Arg. of periapsis
356.5253°
True anomaly
1.50562°
Mean anomaly
0.1458°
Eccentric anomaly
0.57418°
Mean motion
0.47299 °/min
Orbital period
761.12 mins
BSTAR
-0.00038842
Loading maneuver chart data...
Computing Atmospheric mass density...
Loading historical data...
Loading historical data...
Loading historical data...
Loading historical data...
Loading historical data...
Loading historical data...
Loading historical data...

Documentation

Showing up to 5 results
|